Location: Newborough
(53.1667°N, 4.3667°W)
Time: 13:33:36
(UTC+00:00)

Daily predictions for brighter satellites

Satellite Brightness Start Highest point End
(mag) Time Altitude Azimuth Time Altitude Azimuth Time Altitude Azimuth
ERS-1 Rocket 3.1 21:23:17 10° SSE 21:28:18 73° ENE 21:33:20 10° NNW
Cosmos 1452 Rocket 3.7 21:24:03 10° SSW 21:29:19 81° WNW 21:34:37 10° NNE
Cosmos 1892 4.3 21:27:14 10° SE 21:30:01 20° E 21:32:50 10° NE
Meteor 1-21 Rocket 4.3 21:26:57 10° S 21:32:31 67° E 21:38:14 10° NNE
Cosmos 1110 Rocket 4.0 21:27:29 10° SSW 21:32:45 76° ESE 21:38:06 10° NNE
Cosmos 2228 3.3 21:29:22 10° NNW 21:33:36 68° W 21:37:48 10° S
Cosmos 1302 Rocket 4.5 21:30:59 10° S 21:35:49 40° ESE 21:40:39 10° NE
Cosmos 2154 Rocket 4.1 21:30:26 10° NNW 21:36:42 84° W 21:42:53 10° S
Cosmos 968 Rocket 3.6 21:35:36 10° NNW 21:40:50 89° WSW 21:46:04 10° SSE
Cosmos 1892 Rocket 4.1 21:39:00 10° SSE 21:43:08 42° E 21:47:15 10° NNE
Cosmos 1697 Rocket 3.5 21:37:55 10° NW 21:43:16 45° WSW 21:48:33 10° S
Cosmos 1980 Rocket 2.3 21:38:23 10° NNW 21:44:07 78° WSW 21:49:47 10° SSE
Cosmos 2219 Rocket 4.4 21:41:56 10° NNW 21:45:56 19° NNE 21:49:56 10° ENE
SL-16 R/B 3.0 21:41:20 10° NNW 21:46:46 43° NE 21:52:10 10° ESE
Cosmos 2058 Rocket 3.4 21:44:27 10° N 21:48:50 57° ENE 21:53:13 10° SSE
SL-8 Rocket 4.3 21:45:43 10° N 21:51:52 57° ENE 21:57:56 10° SSE
Cosmos 1408 3.2 21:48:58 10° SSE 21:52:08 35° E 21:55:19 10° NNE
Cosmos 2369 4.1 21:46:51 10° NW 21:52:32 63° WSW 21:58:10 10° SSE
CZ-2C R/B 3.8 21:48:47 10° NNE 21:53:17 56° E 21:57:41 10° S
ATLAS 5 CENTAUR R/B 2.6 21:51:34 10° SSE 21:54:25 20° ESE 21:57:30 10° ENE
Resurs 01 Rocket 4.0 21:52:40 10° SW 21:55:54 19° W 21:59:09 10° NW
SJ 16-02 2.9 21:55:14 10° N 21:59:04 27° NE 22:02:52 10° ESE
H-2A R/B 4.2 21:57:01 10° N 22:00:53 30° WNW 22:04:46 10° WSW
COSMOS 2406 3.2 21:59:05 10° SSW 22:04:50 78° ESE 22:10:37 10° NNE
Cosmos 1833 Rocket 3.2 22:04:36 10° SW 22:10:11 66° NW 22:15:50 10° NNE
Cosmos 1867 4.2 22:05:04 10° NW 22:10:19 48° WSW 22:15:18 11° SSE
Cosmos 1825 3.2 22:08:00 12° SSE 22:10:52 30° E 22:14:11 10° NNE
Cosmos 2366 rocket 4.2 22:05:57 10° N 22:12:17 66° ENE 22:18:15 12° SSE
Cosmos 1869 3.7 22:11:19 10° N 22:15:08 51° ENE 22:18:25 14° SSE
CZ-4B R/B 4.1 22:14:12 10° NNW 22:16:05 16° WNW 22:17:57 10° WSW
Cosmos 2218 Rocket 4.2 22:12:20 10° N 22:18:47 73° ENE 22:24:42 12° SSE
Cosmos 2322 Rocket 2.8 22:15:21 10° NNW 22:20:55 53° NE 22:26:28 10° SE
Meteor 1-27 4.2 22:16:51 10° N 22:22:28 76° ENE 22:27:27 13° SSE
GP-B 3.2 22:18:02 10° N 22:22:29 66° E 22:26:27 13° S
ARIANE 5 R/B 3.0 22:21:47 10° S 22:26:06 59° WSW 22:30:28 10° NNW
SAR-Lupe-4 4.2 22:23:35 10° NNE 22:26:59 39° E 22:29:35 15° SSE
USA 276 3.0 22:24:18 10° W 22:27:00 29° SSW 22:28:42 17° SSE
Terra 2.6 22:23:22 10° S 22:27:57 46° W 22:32:33 10° NNW
FALCON 9 DEB 4.2 22:25:53 10° W 22:28:42 27° SSW 22:30:31 17° SSE
Cosmos 1959 Rocket 4.5 22:22:45 10° N 22:28:55 81° E 22:34:27 13° SSE
SPOT 5 4.2 22:27:24 10° SSW 22:31:10 28° W 22:34:58 10° NW
USA 234 3.4 22:25:26 10° ESE 22:32:00 79° NNE 22:38:34 10° WNW
Cosmos 2278 4.1 22:28:49 10° NW 22:34:25 57° WSW 22:39:18 14° S
BREEZE-M DEB (TANK) 3.3 22:32:27 10° WSW 22:35:08 53° S 22:43:17 10° ESE
Cosmos 2341 Rocket 4.3 22:31:49 10° NNW 22:38:04 65° W 22:44:11 10° S
Cosmos 1633 3.5 22:39:00 17° SE 22:41:03 31° E 22:44:09 10° NNE
Cosmos 2333 Rocket 3.4 22:36:17 10° NNW 22:41:40 37° NE 22:47:01 10° ESE
Cosmos 1992 Rocket 4.0 22:38:04 10° SSW 22:43:15 65° ESE 22:48:28 10° NNE
SAR-Lupe-1 4.1 22:40:14 10° NNE 22:43:49 67° ESE 22:46:41 15° S
Okean 1-7 Rocket 3.6 22:40:57 13° S 22:44:50 71° E 22:49:22 10° NNE
Cosmos 1758 Rocket 4.5 22:42:24 16° SSE 22:45:20 34° E 22:49:20 10° NNE
Cosmos 1486 Rocket 4.3 22:40:40 10° NNW 22:45:49 60° WSW 22:50:04 15° S
ASTEX 1 3.5 22:41:25 10° N 22:46:28 86° W 22:51:09 12° S
Meteor 1-11 4.4 22:42:06 10° SSW 22:47:41 72° WNW 22:53:17 10° N
Cosmos 2082 Rocket 2.4 22:42:46 10° SW 22:48:29 75° WNW 22:54:13 10° NNE
Cosmos 1606 3.5 22:48:01 10° N 22:51:42 41° ENE 22:54:21 17° SE
Cosmos-2242 3.3 22:47:54 10° N 22:52:07 57° ENE 22:55:10 18° SSE
Cosmos 1812 Rocket 3.6 22:48:24 10° N 22:52:53 73° ENE 22:56:09 18° SSE
Cosmos 2360 Rocket 2.6 22:49:48 10° NNW 22:55:27 61° NE 23:00:32 13° SE
ADEOS Rocket 3.9 22:53:13 13° SE 22:59:51 61° ENE 23:07:31 10° NNW
Gbstr 26 Del rocket 4.3 22:59:00 18° SSE 23:00:02 20° SE 23:03:31 10° E
Cosmos 807 4.1 22:57:46 10° NNW 23:00:49 77° W 23:02:30 23° S
Cosmos 1932 4.5 22:58:52 10° SW 23:05:07 87° SE 23:11:32 10° NE
Cosmos 1892 3.7 23:01:42 10° SW 23:05:18 42° WNW 23:08:56 10° N
Cosmos 1821 Rocket 4.0 23:00:15 10° N 23:06:32 80° E 23:11:22 17° SSE
Cosmos 2181 Rocket 4.2 23:02:01 10° SSW 23:08:12 75° WNW 23:14:31 10° N
Cosmos 1602 Rocket 3.5 23:05:35 18° S 23:08:45 72° E 23:13:05 10° NNE
Cosmos 1354 Rocket 4.2 23:10:29 10° NNW 23:15:46 67° WSW 23:19:33 19° S
Cosmos 2237 4.3 23:12:32 10° NW 23:18:16 73° WSW 23:22:29 19° SSE
Cosmos 2237 Rocket 4.4 23:16:42 10° NNW 23:21:07 22° NNE 23:25:31 10° E
ERS-2 4.0 23:18:57 10° NE 23:21:30 18° E 23:22:56 15° ESE
ALOS 2 2.7 23:21:37 20° SSE 23:24:36 75° ENE 23:29:00 10° NNW
CENTAUR R/B 4.4 23:23:10 10° ESE 23:25:07 12° E 23:27:11 10° E
Spot 4 3.9 23:21:49 20° S 23:25:12 74° WSW 23:30:02 10° NNW
Cosmos 1980 Rocket 4.3 23:23:52 10° WNW 23:27:12 16° W 23:30:29 10° SW
COSMOS 2428 3.8 23:22:44 10° NNW 23:28:10 41° NE 23:33:33 10° ESE
Cosmos 1777 Rocket 4.1 23:24:08 10° NNW 23:29:26 75° WSW 23:33:07 20° SSE
H-2A R/B 3.9 23:26:15 10° NNE 23:30:22 49° E 23:32:48 22° SSE
SL-16 R/B 2.8 23:25:33 10° NW 23:30:58 46° WSW 23:34:48 18° S
Cosmos 1626 Rocket 4.2 23:27:11 12° SSW 23:31:05 50° WNW 23:35:22 10° N
Cosmos 2219 Rocket 2.8 23:25:37 10° NNW 23:31:12 54° NE 23:36:40 10° SE
Cosmos 2058 3.3 23:29:58 22° SSE 23:32:25 52° E 23:36:30 10° NNE
Nadezhda 3 Rocket 4.0 23:28:02 18° S 23:32:45 75° E 23:38:56 10° NNE
Cosmos 1953 Rocket 4.3 23:33:03 20° SSE 23:35:38 41° E 23:39:47 10° NNE
SJ 16-02 1.9 23:33:34 10° NNW 23:37:52 49° WSW 23:40:31 21° S
ATLAS 5 CENTAUR R/B 1.7 23:34:33 10° WSW 23:38:22 67° NW 23:42:50 10° NE
USA 267 3.4 23:32:13 10° ENE 23:38:35 51° SE 23:44:56 10° SW
Meteor 2-2 Rocket 4.4 23:33:42 10° NNW 23:39:46 86° ENE 23:44:11 20° SSE
Cosmos 2322 4.2 23:34:45 10° NNW 23:40:23 57° NE 23:45:45 11° SE
SL-4 R/B 2.4 23:40:05 25° S 23:41:10 31° SSE 23:44:27 10° E
Cosmos 1825 Rocket 3.5 23:41:10 22° S 23:43:52 72° E 23:48:13 10° NNE
Cosmos 1825 3.9 23:42:57 10° SW 23:46:13 28° WNW 23:49:30 10° N
COSMOS 2455 4.3 23:43:03 10° NW 23:48:38 38° NNE 23:54:13 10° E
Cosmos 2221 2.9 23:45:06 10° N 23:49:25 58° ENE 23:52:14 21° SSE
